Weather History for New Richmond, WI

Change the Weather History Date:

Tuesday, February 5, 2013

  Actual Average (KMSP) Record (KMSP)
Temperature  
Mean Temperature 13 °F 18 °F  
Max Temperature 26 °F 26 °F 51 °F (2005)
Min Temperature 0 °F 10 °F -27 °F (1979)
Degree Days  
Heating Degree Days 52 47  
Month to date heating degree days 239  
Since 1 July heating degree days 4793  
Cooling Degree Days 0 0  
Month to date cooling degree days 0  
Year to date cooling degree days 0  
Moisture  
Dew Point 14 °F    
Average Humidity 82    
Maximum Humidity 100    
Minimum Humidity 59    
Precipitation  
Precipitation 0.00 in 0.02 in 0.52 in (1908)
Month to date precipitation 0.12  
Year to date precipitation 1.02  
Snow  
Snow 0.00 in 0.30 in 7.50 in (1908)
Month to date snowfall 1.5  
Since 1 July snowfall 35.5  
Snow Depth -    
Sea Level Pressure  
Sea Level Pressure 29.83 in    
Wind  
Wind Speed 10 mph (West)    
Max Wind Speed 17 mph    
Max Gust Speed 23 mph    
Visibility 9 miles    
Events Snow    
T = Trace of Precipitation, MM = Missing Value Source: NWS Daily Summary

Daily Weather History Graph

Daily Weather History Graph

Search for Another Location

Airport:

Trip Planner

Search our weather history database for the weather conditions in past years. The results will help you decide how hot, cold, wet, or windy it might be!

Date:

Astronomy

Feb. 05, 2013 Rise Set
Actual Time 7:25 AM CST 5:23 PM CST
Civil Twilight 6:54 AM CST 5:54 PM CST
Nautical Twilight 6:19 AM CST 6:29 PM CST
Astronomical Twilight 5:44 AM CST 7:04 PM CST
Moon 3:12 AM CST (2/5) 12:36 PM CST (2/5)
Length of Visible Light 11h 00m
Length of Day
9h 58m
Waning Crescent, 26% of the Moon is Illuminated
Feb 5
Waning Crescent
Feb 10
New
Feb 17
First Quarter
Feb 25
Full
Mar 4
Last Quarter

Hourly Weather History & Observations

Time (CST) Temp. Windchill Dew Point Humidity Pressure Visibility Wind Dir Wind Speed Gust Speed Precip Events Conditions
12:15 AM 12.2 °F -2.5 °F 10.4 °F 92% 29.74 in 4.0 mi South 12.7 mph - N/A Snow Light Snow
12:35 AM 14.0 °F 0.5 °F 10.4 °F 86% 29.72 in 3.0 mi South 11.5 mph - N/A Snow Light Snow
12:55 AM 14.0 °F -0.2 °F 12.2 °F 93% 29.71 in 4.0 mi South 12.7 mph - N/A Snow Light Snow
1:15 AM 15.8 °F 1.4 °F 14.0 °F 93% 29.69 in 3.0 mi South 13.8 mph - N/A Snow Light Snow
1:35 AM 17.6 °F 5.7 °F 14.0 °F 86% 29.68 in 10.0 mi SSW 10.4 mph - N/A   Overcast
1:55 AM 17.6 °F 5.0 °F 14.0 °F 86% 29.69 in 10.0 mi SSW 11.5 mph 17.3 mph N/A   Overcast
2:15 AM 17.6 °F 6.4 °F 14.0 °F 86% 29.69 in 10.0 mi SSW 9.2 mph - N/A   Overcast
2:35 AM 17.6 °F 6.4 °F 14.0 °F 86% 29.68 in 10.0 mi SSW 9.2 mph - N/A   Overcast
2:55 AM 17.6 °F 5.7 °F 14.0 °F 86% 29.67 in 10.0 mi SSW 10.4 mph - N/A   Overcast
3:15 AM 19.4 °F 7.9 °F 15.8 °F 86% 29.67 in 10.0 mi SSW 10.4 mph - N/A   Overcast
3:35 AM 19.4 °F 9.5 °F 15.8 °F 86% 29.66 in 10.0 mi SSW 8.1 mph - N/A   Overcast
3:55 AM 19.4 °F 8.6 °F 17.6 °F 93% 29.65 in 10.0 mi SSW 9.2 mph - N/A   Overcast
4:15 AM 21.2 °F 10.9 °F 17.6 °F 86% 29.64 in 10.0 mi SSW 9.2 mph - N/A   Overcast
4:35 AM 21.2 °F 10.1 °F 17.6 °F 86% 29.65 in 10.0 mi SSW 10.4 mph - N/A   Overcast
4:55 AM 21.2 °F 10.1 °F 19.4 °F 93% 29.65 in 10.0 mi SW 10.4 mph - N/A   Overcast
5:15 AM 21.2 °F 10.1 °F 19.4 °F 93% 29.64 in 3.0 mi SSW 10.4 mph - N/A Snow Light Snow
5:35 AM 21.2 °F 11.7 °F 19.4 °F 93% 29.64 in 4.0 mi SW 8.1 mph - N/A Snow Light Snow
5:55 AM 21.2 °F 12.6 °F 19.4 °F 93% 29.63 in 5.0 mi SSW 6.9 mph - N/A Snow Light Snow
6:15 AM 21.2 °F 12.6 °F 21.2 °F 100% 29.64 in 7.0 mi WSW 6.9 mph - N/A Snow Light Snow
6:35 AM 21.2 °F 10.9 °F 21.2 °F 100% 29.64 in 7.0 mi WSW 9.2 mph - N/A   Overcast
6:55 AM 21.2 °F 11.7 °F 21.2 °F 100% 29.64 in 7.0 mi WSW 8.1 mph - N/A   Overcast
7:15 AM 23.0 °F 13.1 °F 21.2 °F 93% 29.65 in 7.0 mi WSW 9.2 mph - N/A   Overcast
7:35 AM 23.0 °F 13.1 °F 23.0 °F 100% 29.66 in 5.0 mi WSW 9.2 mph - N/A   Overcast
7:55 AM 23.0 °F 13.1 °F 23.0 °F 100% 29.67 in 5.0 mi West 9.2 mph - N/A   Overcast
8:15 AM 23.0 °F 14.7 °F 23.0 °F 100% 29.68 in 5.0 mi West 6.9 mph - N/A   Overcast
8:35 AM 24.8 °F 16.9 °F 23.0 °F 93% 29.70 in 5.0 mi West 6.9 mph - N/A   Overcast
8:55 AM 24.8 °F 15.3 °F 23.0 °F 93% 29.70 in 5.0 mi WNW 9.2 mph - N/A   Overcast
9:15 AM 26.6 °F 17.5 °F 23.0 °F 86% 29.71 in 7.0 mi NW 9.2 mph - N/A   Overcast
9:35 AM 26.6 °F 15.7 °F 23.0 °F 86% 29.73 in 7.0 mi NW 12.7 mph 17.3 mph N/A   Overcast
9:55 AM 26.6 °F 14.7 °F 21.2 °F 80% 29.74 in 7.0 mi NNW 15.0 mph 19.6 mph N/A   Overcast
10:15 AM 26.6 °F 14.7 °F 21.2 °F 80% 29.75 in 10.0 mi NNW 15.0 mph - N/A   Overcast
10:35 AM 26.6 °F 14.7 °F 21.2 °F 80% 29.77 in 10.0 mi NW 15.0 mph - N/A   Overcast
10:55 AM 26.6 °F 15.2 °F 21.2 °F 80% 29.79 in 10.0 mi NNW 13.8 mph 18.4 mph N/A   Overcast
11:15 AM 24.8 °F 11.5 °F 19.4 °F 80% 29.80 in 10.0 mi NNW 17.3 mph 23.0 mph N/A   Overcast
11:35 AM 24.8 °F 11.9 °F 19.4 °F 80% 29.82 in 10.0 mi NNW 16.1 mph - N/A   Overcast
11:55 AM 24.8 °F 13.4 °F 19.4 °F 80% 29.82 in 10.0 mi North 12.7 mph 19.6 mph N/A   Overcast
12:15 PM 24.8 °F 12.9 °F 19.4 °F 80% 29.83 in 10.0 mi NNW 13.8 mph - N/A   Overcast
12:35 PM 24.8 °F 12.9 °F 19.4 °F 80% 29.84 in 10.0 mi NNW 13.8 mph - N/A   Overcast
12:55 PM 24.8 °F 12.9 °F 17.6 °F 74% 29.84 in 10.0 mi NNW 13.8 mph 18.4 mph N/A   Overcast
1:15 PM 24.8 °F 12.9 °F 17.6 °F 74% 29.85 in 10.0 mi NNW 13.8 mph - N/A   Overcast
1:35 PM 24.8 °F 13.4 °F 15.8 °F 69% 29.86 in 10.0 mi NNW 12.7 mph 17.3 mph N/A   Scattered Clouds
1:55 PM 24.8 °F 14.0 °F 15.8 °F 69% 29.87 in 10.0 mi NW 11.5 mph - N/A   Clear
2:15 PM 24.8 °F 14.0 °F 14.0 °F 64% 29.87 in 10.0 mi NW 11.5 mph - N/A   Clear
2:35 PM 24.8 °F 14.0 °F 14.0 °F 64% 29.88 in 10.0 mi NNW 11.5 mph - N/A   Clear
2:55 PM 24.8 °F 15.3 °F 14.0 °F 64% 29.90 in 10.0 mi NW 9.2 mph - N/A   Clear
3:15 PM 24.8 °F 14.0 °F 12.2 °F 59% 29.91 in 10.0 mi NNW 11.5 mph - N/A   Clear
3:35 PM 23.0 °F 11.7 °F 12.2 °F 63% 29.92 in 10.0 mi NNW 11.5 mph - N/A   Clear
3:55 PM 23.0 °F 13.1 °F 12.2 °F 63% 29.92 in 10.0 mi NW 9.2 mph - N/A   Clear
4:15 PM 23.0 °F 14.7 °F 12.2 °F 63% 29.93 in 10.0 mi NW 6.9 mph - N/A   Clear
4:35 PM 21.2 °F 11.7 °F 10.4 °F 63% 29.94 in 10.0 mi NW 8.1 mph - N/A   Clear
4:55 PM 21.2 °F 11.7 °F 10.4 °F 63% 29.95 in 10.0 mi NW 8.1 mph - N/A   Clear
5:15 PM 21.2 °F 11.7 °F 10.4 °F 63% 29.96 in 10.0 mi WNW 8.1 mph - N/A   Clear
5:35 PM 21.2 °F 13.6 °F 10.4 °F 63% 29.97 in 10.0 mi WNW 5.8 mph - N/A   Clear
5:55 PM 19.4 °F 11.5 °F 10.4 °F 68% 29.98 in 10.0 mi WNW 5.8 mph - N/A   Clear
6:15 PM 19.4 °F 11.5 °F 8.6 °F 63% 29.99 in 10.0 mi NW 5.8 mph - N/A   Clear
6:35 PM 14.0 °F 6.5 °F 5.0 °F 67% 29.99 in 10.0 mi WNW 4.6 mph - N/A   Clear
6:55 PM 14.0 °F 6.5 °F 6.8 °F 73% 30.00 in 10.0 mi NW 4.6 mph - N/A   Clear
7:15 PM 14.0 °F 6.5 °F 6.8 °F 73% 30.01 in 10.0 mi NW 4.6 mph - N/A   Clear
7:35 PM 14.0 °F - 6.8 °F 73% 30.02 in 10.0 mi Calm Calm - N/A   Clear
7:55 PM 12.2 °F - 5.0 °F 73% 30.02 in 10.0 mi Calm Calm - N/A   Clear
8:15 PM 10.4 °F - 5.0 °F 79% 30.03 in 10.0 mi Calm Calm - N/A   Clear
8:35 PM 10.4 °F - 6.8 °F 85% 30.03 in 10.0 mi Calm Calm - N/A   Clear
9:15 PM 5.0 °F - 3.2 °F 92% 30.03 in 10.0 mi Calm Calm - N/A   Clear
9:35 PM 3.2 °F - 1.4 °F 92% 30.04 in 10.0 mi Calm Calm - N/A   Clear
9:55 PM 3.2 °F -4.2 °F 1.4 °F 92% 30.06 in 10.0 mi SW 3.5 mph - N/A   Clear
10:15 PM 3.2 °F -4.2 °F 3.2 °F 100% 30.07 in 10.0 mi SW 3.5 mph - N/A   Clear
10:35 PM -0.4 °F - -4.0 °F 85% 30.06 in 10.0 mi Calm Calm - N/A   Clear
10:55 PM -0.4 °F -8.3 °F -2.2 °F 92% 30.05 in 10.0 mi East 3.5 mph - N/A   Clear
11:15 PM -0.4 °F - -4.0 °F 85% 30.04 in 10.0 mi Calm Calm - N/A   Clear
11:35 PM -0.4 °F - -4.0 °F 85% 30.05 in 10.0 mi Calm Calm - N/A   Clear
11:55 PM 3.2 °F - 1.4 °F 92% 30.06 in 10.0 mi Calm Calm - N/A   Clear